Location: Ethel Rock
(53.4667°N, 4.5667°W)
Time: 05:11:32
(UTC+00:00)

Cosmos 2237 Rocket - Pass Details

Date: 24 October 2020
Orbit: 835 x 849 km, 71.0° (Epoch: 25 November)

Event Time Altitude Azimuth Distance (km) Brightness Sun altitude
Exits shadow 05:14:10 - 324° (NW) 2,715 4.5 -16.7°
Reaches altitude 10° 05:15:30 10° 335° (NNW) 2,461 4.4 -16.5°
Maximum altitude 05:18:05 13° 3° (N) 2,246 4.5 -16.1°
Drops below altitude 10° 05:20:40 10° 30° (NNE) 2,463 5.0 -15.8°
Sets 05:24:39 0° 58° (ENE) 3,400 6.4 -15.2°
